Hourly Data Report for July 12, 2018

TORONTO CITY
ONTARIO
Current Station Operator: ECCC - MSC

43°40'00.000" N
79°24'00.000" W
112.50 m
6158355
71508
XTO

Download Data

Hourly Data (July 2018)
Hourly Data Report for July 12, 2018
TIME
LST
Temp Definition
°C
Dew Point Definition
°C
Rel Hum Definition
%
Precip. Amount Definition
mm

Wind Dir Definition
10's deg

Wind Spd Definition
km/h
Visibility Definition
km
Stn Press Definition
kPa
Hmdx Definition


Wind Chill Definition


Weather Definition


00:00 20.7 7.3 42 0.0 LegendMM LegendMM   100.80     LegendNANA
01:00 20.0 8.2 47 0.0 LegendMM LegendMM   100.80     LegendNANA
02:00 20.1 8.6 48 0.0 LegendMM LegendMM   100.80     LegendNANA
03:00 19.0 9.6 54 0.0 LegendMM LegendMM   100.79     LegendNANA
04:00 18.5 9.8 57 0.0 LegendMM LegendMM   100.85     LegendNANA
05:00 17.1 9.9 63 0.0 LegendMM LegendMM   100.86     LegendNANA
06:00 17.8 10.9 64 0.0 LegendMM LegendMM   100.92     LegendNANA
07:00 20.6 10.8 54 0.0 LegendMM LegendMM   100.97     LegendNANA
08:00 23.1 9.9 43 0.0 LegendMM LegendMM   101.03     LegendNANA
09:00 25.1 9.8 38 0.0 LegendMM LegendMM   101.04 26   LegendNANA
10:00 27.3 9.9 34 0.0 LegendMM LegendMM   101.00 29   LegendNANA
11:00 27.1 9.3 33 0.0 LegendMM LegendMM   100.99 28   LegendNANA
12:00 26.7 9.0 33 0.0 LegendMM LegendMM   101.02 28   LegendNANA
13:00
14:00
15:00
16:00 28.1 8.0 28 0.0 LegendMM LegendMM   100.90 29   LegendNANA
17:00 27.7 6.5 26 0.0 LegendMM LegendMM   100.87 28   LegendNANA
18:00 27.3 5.9 26 0.0 LegendMM LegendMM   100.88 27   LegendNANA
19:00 26.6 6.8 29 0.0 LegendMM LegendMM   100.83 27   LegendNANA
20:00 25.9 7.0 30 0.0 LegendMM LegendMM   100.84 26   LegendNANA
21:00 26.0 6.5 29 0.0 LegendMM LegendMM   100.86 26   LegendNANA
22:00 23.9 8.7 38 0.0 LegendMM LegendMM   100.79 25   LegendNANA
23:00 24.8 10.3 40 0.0 LegendMM LegendMM   100.84 26   LegendNANA

Notes on Data Quality.

Legend

  • E = Estimated
  • M = Missing
  • NA = Not Available*
  • [empty] = Indicates an unobserved value
Date modified: